Вернуться в каталог

STARLINK-11355

АктивенСвязьVLEO
NORAD 62415·PAYLOAD·🇺🇸 United States

Запущен Dec 23, 2024 с Cape Canaveral Space Force Station

Loading…

Ближайшие Пролёты (ближайшие 24 часа)

TLE

СвежийSource: CelesTrak SupGP

Эпоха: Sep 15, 2026, 02:14 UTC

1 62415C 24249G   26258.09354167  .00106860  00000+0  82952-3 0  2584
2 62415  43.0006 105.7696 0001932 266.2344  10.6746 15.70799080    10

Отслеживайте STARLINK-11355 в реальном времени с AllMySat

Download on the App Store